Location: Newark
(27.5900°N, 83.4900°E)
Time: 09:48:33
(UTC+00:00)

Hubble Space Telescope - Pass Details

Date: 17 December 2019
Orbit: 536 x 540 km, 28.5° (Epoch: 25 January)

Event Time Altitude Azimuth Distance (km) Brightness Sun altitude
Exits shadow 23:48:59 38° 273° (W) 821 1.2 -17.5°
Maximum altitude 23:50:29 81° 355° (N) 545 0.7 -17.2°
Drops below altitude 10° 23:54:37 10° 83° (E) 1,786 4.4 -16.4°
Sets 23:56:53 0° 85° (E) 2,677 5.6 -15.9°
